• In France
  • List of Countries
  • For 7 days
  • Water Temperature
  • Satellite Maps
  • Weather Map
  • Weather Widgets
  • user-avatar
    Login

    Hourly Weather Limón

    Today, 15 November, Thursday

    Time Temperature Precipitation Wind Pressure Humidity
    00:00 +26°C° 0 mm 2 mps 759 mmHg 75%
    01:00 +26°C° 0.3 mm 3 mps 759 mmHg 76%
    02:00 +26°C° 0.3 mm 3 mps 758 mmHg 77%
    03:00 +26°C° 0.3 mm 3 mps 758 mmHg 78%
    04:00 +26°C° 0.5 mm 3 mps 759 mmHg 79%
    05:00 +26°C° 0.5 mm 3 mps 759 mmHg 80%
    06:00 +27°C° 0 mm 2 mps 759 mmHg 82%
    07:00 +28°C° 1.1 mm 3 mps 759 mmHg 78%
    08:00 +30°C° 1.1 mm 3 mps 759 mmHg 75%
    09:00 +31°C° 1.1 mm 3 mps 759 mmHg 71%
    10:00 +30°C° 1.3 mm 3 mps 759 mmHg 75%
    11:00 +30°C° 1.3 mm 3 mps 759 mmHg 79%
    12:00 +29°C° 1.3 mm 3 mps 758 mmHg 83%
    13:00 +29°C° 1.1 mm 3 mps 758 mmHg 82%
    14:00 +29°C° 1.1 mm 3 mps 758 mmHg 82%
    15:00 +29°C° 1.1 mm 3 mps 757 mmHg 82%
    16:00 +28°C° 0.7 mm 2 mps 757 mmHg 84%
    17:00 +27°C° 0.7 mm 2 mps 758 mmHg 85%
    18:00 +26°C° 0.7 mm 2 mps 758 mmHg 87%
    19:00 +26°C° 0.7 mm 2 mps 759 mmHg 87%
    20:00 +26°C° 0.7 mm 2 mps 759 mmHg 87%
    21:00 +26°C° 0.7 mm 2 mps 760 mmHg 87%
    22:00 +26°C° 0.6 mm 2 mps 759 mmHg 86%
    23:00 +26°C° 0.6 mm 2 mps 759 mmHg 86%

    Tomorrow, 16 November, Friday

    Time Temperature Precipitation Wind Pressure Humidity
    00:00 +26°C° 0.6 mm 2 mps 759 mmHg 86%
    01:00 +26°C° 0.6 mm 2 mps 759 mmHg 85%
    02:00 +26°C° 0.6 mm 2 mps 758 mmHg 85%
    03:00 +26°C° 0.6 mm 2 mps 758 mmHg 85%
    04:00 +26°C° 0.5 mm 2 mps 758 mmHg 85%
    05:00 +26°C° 0.5 mm 2 mps 758 mmHg 85%
    06:00 +26°C° 0.5 mm 2 mps 759 mmHg 84%
    07:00 +28°C° 0.3 mm 2 mps 759 mmHg 78%
    08:00 +30°C° 0.3 mm 2 mps 759 mmHg 71%
    09:00 +32°C° 0.3 mm 2 mps 760 mmHg 65%
    10:00 +34°C° 0.4 mm 3 mps 759 mmHg 64%
    11:00 +34°C° 0.4 mm 3 mps 759 mmHg 64%
    12:00 +34°C° 0.4 mm 3 mps 758 mmHg 63%
    13:00 +34°C° 0.7 mm 3 mps 758 mmHg 66%
    14:00 +33°C° 0.7 mm 3 mps 757 mmHg 69%
    15:00 +31°C° 0.7 mm 3 mps 756 mmHg 73%
    16:00 +30°C° 0.5 mm 3 mps 757 mmHg 79%
    17:00 +28°C° 0.5 mm 3 mps 757 mmHg 85%
    18:00 +27°C° 0.5 mm 3 mps 757 mmHg 91%
    19:00 +27°C° 0.5 mm 2 mps 758 mmHg 88%
    20:00 +26°C° 0.5 mm 2 mps 758 mmHg 85%
    21:00 +26°C° 0.5 mm 2 mps 759 mmHg 83%
    22:00 +26°C° 0.5 mm 2 mps 759 mmHg 81%
    23:00 +26°C° 0.5 mm 2 mps 759 mmHg 80%

    Day after tomorrow, 17 November, Saturday

    Time Temperature Precipitation Wind Pressure Humidity
    00:00 +26°C° 0.5 mm 2 mps 758 mmHg 78%
    01:00 +26°C° 0.2 mm 3 mps 758 mmHg 78%
    02:00 +26°C° 0.2 mm 3 mps 758 mmHg 78%
    03:00 +26°C° 0.2 mm 3 mps 758 mmHg 79%
    04:00 +26°C° 0.1 mm 3 mps 758 mmHg 79%
    05:00 +26°C° 0.1 mm 3 mps 758 mmHg 79%
    06:00 +26°C° 0.1 mm 3 mps 759 mmHg 80%
    07:00 +29°C° 0.1 mm 3 mps 759 mmHg 73%
    08:00 +31°C° 0.1 mm 3 mps 759 mmHg 67%
    09:00 +35°C° 0.1 mm 3 mps 760 mmHg 60%
    10:00 +35°C° 0.3 mm 3 mps 759 mmHg 60%
    11:00 +35°C° 0.3 mm 3 mps 759 mmHg 61%
    12:00 +35°C° 0.3 mm 3 mps 758 mmHg 61%
    13:00 +34°C° 0.8 mm 3 mps 758 mmHg 64%
    14:00 +34°C° 0.8 mm 3 mps 757 mmHg 68%
    15:00 +33°C° 0.8 mm 3 mps 756 mmHg 71%
    16:00 +30°C° 0.9 mm 2 mps 757 mmHg 78%
    17:00 +29°C° 0.9 mm 2 mps 757 mmHg 84%
    18:00 +27°C° 0.9 mm 2 mps 757 mmHg 91%
    19:00 +27°C° 0.8 mm 2 mps 758 mmHg 88%
    20:00 +27°C° 0.8 mm 2 mps 759 mmHg 86%
    21:00 +27°C° 0.8 mm 2 mps 759 mmHg 83%
    22:00 +26°C° 0.5 mm 2 mps 759 mmHg 82%
    23:00 +26°C° 0.6 mm 2 mps 759 mmHg 81%

    18 November, Sunday

    Time Temperature Precipitation Wind Pressure Humidity
    00:00 +26°C° 0.6 mm 2 mps 759 mmHg 80%
    01:00 +26°C° 0.4 mm 2 mps 758 mmHg 81%
    02:00 +26°C° 0.4 mm 2 mps 758 mmHg 81%
    03:00 +26°C° 0.4 mm 2 mps 758 mmHg 82%
    04:00 +26°C° 0.3 mm 2 mps 758 mmHg 82%
    05:00 +26°C° 0.3 mm 2 mps 758 mmHg 82%
    06:00 +26°C° 0.3 mm 2 mps 758 mmHg 82%
    07:00 +29°C° 0.3 mm 2 mps 759 mmHg 75%
    08:00 +31°C° 0.3 mm 2 mps 759 mmHg 69%
    09:00 +34°C° 0.3 mm 2 mps 760 mmHg 63%
    10:00 +34°C° 0.3 mm 2 mps 759 mmHg 63%
    11:00 +34°C° 0.3 mm 2 mps 759 mmHg 63%
    12:00 +34°C° 0.3 mm 1 mps 758 mmHg 63%
    13:00 +33°C° 0.7 mm 1 mps 758 mmHg 66%
    14:00 +32°C° 0.7 mm 1 mps 757 mmHg 68%
    15:00 +31°C° 0.7 mm 1 mps 757 mmHg 71%
    16:00 +30°C° 0.1 mm 1 mps 757 mmHg 76%
    17:00 +29°C° 0.1 mm 1 mps 757 mmHg 81%
    18:00 +27°C° 0.1 mm 1 mps 758 mmHg 86%
    19:00 +27°C° 0.1 mm 1 mps 758 mmHg 83%
    20:00 +27°C° 0.1 mm 1 mps 759 mmHg 80%
    21:00 +27°C° 0.1 mm 2 mps 759 mmHg 78%
    22:00 +26°C° 0.4 mm 2 mps 759 mmHg 77%
    23:00 +26°C° 0.4 mm 2 mps 759 mmHg 75%

    19 November, Monday

    Time Temperature Precipitation Wind Pressure Humidity
    00:00 +26°C° 0.4 mm 2 mps 759 mmHg 74%
    01:00 +26°C° 0.2 mm 2 mps 758 mmHg 75%
    02:00 +26°C° 0.2 mm 2 mps 758 mmHg 76%
    03:00 +26°C° 0.2 mm 2 mps 757 mmHg 77%
    04:00 +26°C° 0.3 mm 2 mps 758 mmHg 78%
    05:00 +26°C° 0.3 mm 2 mps 758 mmHg 78%
    06:00 +27°C° 0.3 mm 1 mps 758 mmHg 79%
    07:00 +28°C° 0.5 mm 1 mps 759 mmHg 75%
    08:00 +30°C° 0.5 mm 1 mps 759 mmHg 71%
    09:00 +32°C° 0.5 mm 1 mps 759 mmHg 67%
    10:00 +32°C° 0.3 mm 2 mps 759 mmHg 65%
    11:00 +34°C° 0.3 mm 2 mps 758 mmHg 64%
    12:00 +35°C° 0.3 mm 2 mps 757 mmHg 62%
    13:00 +34°C° 0.9 mm 2 mps 757 mmHg 66%
    14:00 +32°C° 0.9 mm 2 mps 756 mmHg 70%
    15:00 +33°C° 0.9 mm 3 mps 756 mmHg 74%
    16:00 +30°C° 1.2 mm 2 mps 756 mmHg 80%
    17:00 +29°C° 1.2 mm 2 mps 757 mmHg 86%
    18:00 +27°C° 1.2 mm 2 mps 757 mmHg 92%
    19:00 +27°C° 0.9 mm 2 mps 758 mmHg 90%
    20:00 +27°C° 0.9 mm 2 mps 758 mmHg 88%
    21:00 +27°C° 0.9 mm 2 mps 759 mmHg 87%
    22:00 +27°C° 0.8 mm 2 mps 759 mmHg 85%
    23:00 +26°C° 0.8 mm 2 mps 758 mmHg 83%

    20 November, Tuesday

    Time Temperature Precipitation Wind Pressure Humidity
    00:00 +26°C° 0.8 mm 2 mps 758 mmHg 82%
    01:00 +26°C° 0.9 mm 2 mps 758 mmHg 82%
    02:00 +26°C° 0.9 mm 2 mps 757 mmHg 82%
    03:00 +26°C° 0.9 mm 2 mps 757 mmHg 81%
    04:00 +26°C° 1 mm 2 mps 758 mmHg 81%
    05:00 +27°C° 1 mm 2 mps 758 mmHg 81%
    06:00 +27°C° 1 mm 2 mps 758 mmHg 81%
    07:00 +29°C° 1 mm 2 mps 759 mmHg 75%
    08:00 +31°C° 1 mm 2 mps 759 mmHg 69%
    09:00 +34°C° 1 mm 2 mps 759 mmHg 63%
    10:00 +34°C° 0.7 mm 2 mps 759 mmHg 63%
    11:00 +34°C° 0.7 mm 2 mps 758 mmHg 62%
    12:00 +35°C° 0.7 mm 2 mps 757 mmHg 62%
    13:00 +34°C° 1 mm 2 mps 757 mmHg 65%
    14:00 +32°C° 1 mm 2 mps 757 mmHg 68%
    15:00 +33°C° 1 mm 3 mps 756 mmHg 72%
    16:00 +30°C° 0.9 mm 2 mps 757 mmHg 77%
    17:00 +29°C° 0.9 mm 2 mps 757 mmHg 83%
    18:00 +27°C° 0.9 mm 2 mps 758 mmHg 89%
    19:00 +27°C° 0.9 mm 2 mps 759 mmHg 87%
    20:00 +27°C° 0.9 mm 2 mps 759 mmHg 85%
    21:00 +27°C° 0.9 mm 2 mps 760 mmHg 83%
    22:00 +27°C° 0.4 mm 2 mps 759 mmHg 82%
    23:00 +26°C° 0.4 mm 2 mps 759 mmHg 81%
    Show more